Regional Weather Roundup
Issued by NWS Albany, NY

Current Version | Previous Version | Text Only | Print | Product List | Glossary On
Versions: 1 2 3 4 5 6 7 8 9 10 11 12 13 14 15 16 17 18 19 20 21 22 23 24 25 26 27 28 29 30 31 32 33 34 35 36 37 38 39 40 41 42 43 44 45 46 47 48 49 50
000
ASUS41 KALY 230310
RWRALY

NEW YORK STATE HOURLY WEATHER ROUNDUP
NATIONAL WEATHER SERVICE ALBANY NY
1100 PM EDT FRI AUG 22 2014

NOTE: "FAIR" INDICATES FEW OR NO CLOUDS BELOW 12,000 FEET WITH NO
SIGNIFICANT WEATHER AND/OR NO OBSTRUCTIONS TO VISIBILITY.

NYZ032-033-038>043-046>054-057>066-NYZ062>081-230400-
EAST


CITY           SKY/WX    TMP DP  RH WIND       PRES   REMARKS
ALBANY         CLOUDY    64  61  90 CALM      30.09S
GLENS FALLS    NOT AVBL
POUGHKEEPSIE   CLOUDY    68  61  78 CALM      30.06S
NEWBURGH       CLOUDY    64  64 100 CALM      30.09
MONTGOMERY     CLOUDY    66  63  90 N3        30.08R
WHITE PLAINS   CLOUDY    68  59  73 E6        30.06S
ISLIP          PTCLDY    66  58  75 NE7       30.04S
NEW YORK CITY  CLOUDY    70  61  73 E8        30.05S
CENTRAL PARK   CLOUDY    71  60  68 E7        30.08S
$$

NYZ005>009-017-018-044>046-055-056-230400-
CENTRAL


CITY           SKY/WX    TMP DP  RH WIND       PRES   REMARKS
FULTON         PTCLDY    65  61  87 VRB3      30.03R
SYRACUSE       MOCLDY    64  63  94 E9        30.03R
ROME           CLOUDY    65  59  81 E9        30.07R
ELMIRA         CLOUDY    72  68  88 E5        30.01S
BINGHAMTON     CLOUDY    65  63  93 SE12      30.06R
MONTICELLO     CLOUDY    61  61 100 E3        30.11S
$$

NYZ026>034-041>043-230400-
NORTH


CITY           SKY/WX    TMP DP  RH WIND       PRES   REMARKS
WATERTOWN      CLEAR     65  59  81 E3        30.04R
FORT DRUM      NOT AVBL
MASSENA        CLOUDY    65  62  90 NE5       30.08R
SARANAC LAKE   CLOUDY    60  55  83 S6        30.10R
PLATTSBURGH    CLOUDY    62  61  96 CALM      30.12R
$$

NYZ001>004-010>016-019>021-230400-
WEST


CITY           SKY/WX    TMP DP  RH WIND       PRES   REMARKS
BUFFALO        PTCLDY    68  64  87 NE6       30.00S
DUNKIRK        PTCLDY    66  64  93 VRB3      30.00R
JAMESTOWN      MOCLDY    66  63  88 N5        30.03S
WELLSVILLE     PTCLDY    67  63  87 E5        30.06F
ROCHESTER      MOCLDY    69  66  90 N5        30.01S
PENN YAN       MOCLDY    66  64  93 CALM      30.02S FOG
$$

             KEY
       WCI = WIND CHILL INDEX
       VSB = VISIBILITY
       HX  = HEAT INDEX
$$



USA.gov is the U.S. government's official web portal to all federal, state and local government web resources and services.